Погода в Асаново

Россия / Чувашская Республика     55°18′50″N   47°24′13″E
темп.,
°C
ветер,
м/с
пор.,
м/с
влажн.,
%
обл.,
%
осадки,
мм/ч
давл.,
гПа
погр.,
м
29 июля, чт
чт2900:00+14ю345890 0.0 101448
03:00+14ююз476357 0.0 1013106
06:00+16ююз2269100 0.1 101247
09:00+15ю3785100 0.5 1011226
12:00+18ююз4686100 0.3 1010493
15:00+17ююв4892100 0.9 1008366
18:00+19ююв3588100 0.8 1006352
21:00+17ююв379723 2.8 1004175
30 июля, пт
пт3000:00+17з51098100 0.0 1004316
03:00+16з5109872 0.0 1005336
06:00+17з4109387 0.0 1006361
09:00+21з4674100 0.0 1006592
12:00+26з5755100 0.0 10061647
15:00+27з475060 0.0 10061688
18:00+23юз4764100 0.0 1006161
21:00+18зсз3595100 0.9 1006137
31 июля, сб
сб3100:00+18ююз119677 2.2 100613
03:00+17ююз34972 2.2 100575
06:00+18юз369436 0.0 1005241
09:00+22з577814 0.0 1006697
12:00+27з685353 0.1 10051935
15:00+26з694630 0.1 10061674
18:00+23з4115585 0.0 1007440
21:00+19юз35669 0.0 100868
1 августа, вс
вс100:00+19юз39644 0.0 1008230
03:00+17зюз37680 0.0 1009109
06:00+18зюз377187 0.0 1011190
09:00+23з465273 0.0 1011604
12:00+26зюз5643100 0.0 10111671
15:00+27з564083 0.0 10112012
18:00+26юз235691 0.0 101166
21:00+20ююз346162 0.0 101156
2 августа, пн
пн200:00+20ююз366012 0.0 1010117
03:00+19юз126975 0.0 101116
06:00+20юз4107698 0.2 1011223
09:00+22з477458 1.3 1012347
12:00+28юз3449100 0.0 1011845
15:00+30юз14405 0.0 10101574
18:00+29ююв22545 0.0 100922
21:00+21всв5108368 1.3 1009168